Tracking 28565 objects as of 3-Mar-2024
HD Live streaming from Space Station
objects crossing your sky now

STARLINK-1134

Track STARLINK-1134 now!
10-day predictions
STARLINK-1134 is classified as:


NORAD ID: 45048
Int'l Code: 2020-006E
Perigee: 553.3 km
Apogee: 555.5 km
Inclination: 53.1 °
Period: 95.6 minutes
Semi major axis: 6925 km
RCS: Unknown
Launch date: January 29, 2020
Source: United States (US)
Launch site: AIR FORCE EASTERN TEST RANGE (AFETR)
Your satellite tracking list
Your tracking list is empty




NASA's NSSDC Master Catalog

Two Line Element Set (TLE):
1 45048U 20006E   24062.13930249  .00021013  00000-0  14261-2 0  9997
2 45048  53.0557 357.6150 0001564  85.9505 274.1663 15.06380266225299
Source of the keplerian elements: AFSPC